sat.trackr.live / text

‹ back to catalog

ZY-1 02D

NORAD 44528 · 2019-059A

PAYLOAD ACTIVE UNKNOWN

§ Identity

Operator
Country
PRC
Launch date
2019-09-12
Launch site
TAISC
Launch vehicle
Mass (kg)
RCS (m²)

External: N2YO · Heavens-Above · Gunter

§ Orbital elements

Epoch: 2026-09-20T05:25:34.591584Z

Period
100.33 min
Inclination
98.6632°
Eccentricity
0.0005395
Mean motion
14.35283036 rev/d
Perigee alt
770.3 km
Apogee alt
778.0 km
Semi-major
7,152.3 km
B*
4.4019e-5
RAAN
325.0717°
Arg perigee
91.5262°
Mean anomaly
268.6541°
Rev number
36,797

§ Raw data

ZY-1 02D1 44528U 19059A   26263.22609481  .00000081  00000+0  44019-4 0  99982 44528  98.6632 325.0717 0005395  91.5262 268.6541 14.35283036367970

JSON: /api/v1/satellites/44528 · /tle

For live sub-satellite position, see the globe view (requires WebGL).

§ Visibility from observer

Set your observer location to see the next 7 days of passes ≥ 10°. The values pass through the URL so the page stays shareable.

No JS? Fill the form by hand. The geolocation button needs JavaScript.

§ Radio — SatNOGS DB

ModeDescriptionDownlinkUplink
FM S-band telemetry 2.239 GHz

1 transmitter · refreshed weekly from db.satnogs.org